ORBCOMM FM07 [+]

Last updated on Sat May 13 2023 00:03:01 GMT+0000 (Coordinated Universal Time)

1 25119U 97084H 23132.11160882 .00002390 00000+0 78362-3 0 9996 2 25119 45.0150 74.7781 0005087 316.1532 43.8913 14.40800097330715

Satellite not in orbit

ORBCOMM FM07 [+]